sat.trackr.live / text

‹ back to catalog

STARLINK-34242

NORAD 64727 · 2025-144D

PAYLOAD ACTIVE UNKNOWN

§ Identity

Operator
Country
US
Launch date
2025-07-02
Launch site
AFETR
Launch vehicle
Mass (kg)
RCS (m²)

Purposes: comms

External: N2YO · Heavens-Above · Gunter

§ Orbital elements

Epoch: 2026-09-20T17:18:52.659648Z

Period
93.85 min
Inclination
53.1620°
Eccentricity
0.0001208
Mean motion
15.34427207 rev/d
Perigee alt
461.8 km
Apogee alt
463.4 km
Semi-major
6,840.8 km
B*
5.5538e-4
RAAN
354.3231°
Arg perigee
87.7808°
Mean anomaly
272.3333°
Rev number
6,958

§ Raw data

STARLINK-342421 64727U 25144D   26263.72144282  .00018450  00000+0  55538-3 0  99972 64727  53.1620 354.3231 0001208  87.7808 272.3333 15.34427207 69581

JSON: /api/v1/satellites/64727 · /tle

For live sub-satellite position, see the globe view (requires WebGL).

§ Visibility from observer

Set your observer location to see the next 7 days of passes ≥ 10°. The values pass through the URL so the page stays shareable.

No JS? Fill the form by hand. The geolocation button needs JavaScript.